Regional Weather Roundup
Issued by NWS Newport/Morehead, NC

Current Version | Previous Version | Text Only | Print | Product List | Glossary Off
Versions: 1 2 3 4 5 6 7 8 9 10 11 12 13 14 15 16 17 18 19 20 21 22 23 24 25 26 27 28 29 30 31 32 33 34 35 36 37 38 39 40 41 42 43 44 45 46 47 48 49 50
000 ASUS42 KMHX 130125 RWRMHX WEATHER ROUNDUP FOR EASTERN NORTH CAROLINA NATIONAL WEATHER SERVICE NEWPORT/MOREHEAD CITY NC 800 PM EST FRI FEB 12 2016 NOTE: "FAIR" INDICATES FEW OR NO CLOUDS BELOW 12,000 FEET WITH NO SIGNIFICANT WEATHER AND/OR OBSTRUCTIONS TO VISIBILITY NCZ015>017-031-032-045>047-102-103-130200- NORTH COAST CITY SKY/WX TMP DP RH WIND PRES REMARKS EDENTON CLOUDY 31 29 93 NW5 30.04S ELIZABETH CITY CLOUDY 28 26 92 W7 30.02R KITTY HAWK CLOUDY 34 32 94 CALM 29.97R MANTEO CLOUDY 33 33 100 CALM 29.99R $$ NCZ045>047-081-094-103-104-130200- CENTRAL COAST CITY SKY/WX TMP DP RH WIND PRES REMARKS FRISCO CLOUDY 38 36 92 VRB5 29.97S SWANQUARTER N/A 32 N/A N/A NW1 29.97S $$ NCZ095-097-098-100-101-130200- SOUTHERN COAST CITY SKY/WX TMP DP RH WIND PRES REMARKS BEAUFORT CLOUDY 34 32 92 NW9 30.02R CEDAR ISLAND N/A 36 N/A N/A NW9 30.06R JACKSONVILLE CLOUDY 33 31 92 NW7 30.04R PINEY ISLAND CLOUDY N/A N/A N/A NW6 30.01R WILMINGTON CLOUDY 35 31 85 W5 30.05S $$ NCZ011>013-027>030-043-044-078>080-089-090>093-098-130200- COASTAL PLAIN CITY SKY/WX TMP DP RH WIND PRES REMARKS AHOSKIE NOT AVBL CLINTON CLOUDY 31 31 99 N3 30.07R ELIZABETHTOWN CLOUDY 32 31 94 NW7 30.08R GOLDSBORO CLOUDY 30 30 100 W5 30.05R GREENVILLE CLOUDY 30 28 93 NW3 30.08R HAVELOCK CLOUDY 34 32 92 NW8 30.04R KENANSVILLE CLOUDY 31 31 99 CALM 30.07R KINSTON CLOUDY 30 28 93 CALM 30.07R NEW BERN CLOUDY 33 31 92 NW5 30.04S RICHLANDS CLOUDY 32 27 80 CALM 30.06R ROCKY MOUNT CLOUDY 29 24 82 W3 30.06R WASHINGTON CLOUDY 30 28 91 NW5 30.05R WHITEVILLE CLEAR 33 29 84 CALM 30.06R $$ AMZ130-135-150-152-154-156-158-170-250-252-270-ANZ085-086-088-633-658-670-130200- MARINE OBSERVATIONS STATION/POSITION TIME TEMP WIND PRES WAVE SWELL AIR SEA DIR/SP/G HT/PER HT/PER (UTC) (F) (DEG/KT/KT) (MB) (FT/S) (FT/S) CHESAPEAKE LIGHT 0100 29 320/ 7/ 8 1016.6 64 E VA BEACH 0050 36 48 80/ 4/ 6 1014.1 2/ 7 2/ 7 DUCK 0100 32 1014.9 2 E DUCK 0011 42 N/A 2/ 5 OREGON INLET 0100 36 44 1015.0 13E OREGON INLT 0100 45 N/A 4/ 5 HATTERAS CG 0100 38 46 1014.6 DIAMOND BUOY 0050 45 66 10/ 14/ 16 1014.1 5/ 6 3/ 8 CAPE LOOKOUT NOT AVBL BEAUFORT LAB 0100 34 41 1015.4 30 SE NEW RVR IN 0108 39 62 1016.5 30 SE NEW RVR IN 0025 60 N/A 4/ 6 27 SE WRIGHTSVLE 0008 36 60 360/ 10/ 16 1015.6 5 SE WRIGHTSVLE 0008 36 51 330/ 8/ 12 1017.4 225 S CAPE HAT 0050 57 68 270/ 31/ 41 N/A 16/ 9 41 SE CHARLESTON 0050 53 67 330/ 14/ 17 1017.0 4/ 7 $$

USA.gov is the U.S. government's official web portal to all federal, state and local government web resources and services.